FW5647 Weather Reports


time (UTC)temp
F
wind
direction
speed
knots
gust
knots
rain 1hr
in
rain 24hr
in
rain mn
in
humidity
%
barometer
mb
20260504021540 51 338 2.6 10.4 0.00 0.01 0.01 70 1008.9
20260504020040 51 218 2.6 8.7 0.00 0.01 0.01 70 1009.0
20260504014546 51 290 2.6 7.0 0.00 0.01 0.01 69 1008.8
20260504013036 51 150 2.6 9.6 0.00 0.01 0.01 68 1009.0
20260504011534 52 181 0.9 8.7 0.00 0.01 0.01 67 1009.1
20260504010034 52 127 0.9 7.0 0.00 0.01 0.01 67 1009.0
20260504004542 53 231 2.6 7.0 0.00 0.01 0.01 65 1009.1
20260504003040 53 264 3.5 8.7 0.00 0.01 0.01 64 1009.1
20260504001555 54 244 5.2 13.0 0.00 0.01 0.01 63 1009.4
20260504000037 54 298 5.2 14.8 0.00 0.01 0.01 62 1009.4
20260503234536 55 258 4.3 13.0 0.00 0.01 0.01 61 1009.5
20260503233043 56 322 4.3 15.6 0.00 0.01 0.01 59 1009.2
20260503231541 57 239 4.3 13.0 0.00 0.01 0.01 57 1009.4
20260503230041 58 290 7.0 15.6 0.00 0.01 0.01 54 1009.2
20260503224540 58 245 9.6 16.5 0.00 0.01 0.01 51 1009.2
20260503223036 59 250 7.0 19.1 0.00 0.01 0.01 50 1009.2
20260503221536 60 114 6.1 13.9 0.00 0.01 0.01 48 1009.3
20260503220036 61 248 6.1 18.2 0.00 0.01 0.01 47 1009.3
20260503214532 61 240 7.8 17.4 0.00 0.01 0.01 46 1009.3
20260503213038 60 212 8.7 20.0 0.00 0.01 0.01 45 1009.2
20260503211541 61 271 10.4 18.2 0.00 0.01 0.01 44 1009.3
20260503210037 61 286 6.1 14.8 0.00 0.01 0.01 46 1009.2
20260503204540 61 76 7.0 20.9 0.00 0.01 0.01 45 1009.3
20260503203036 62 262 5.2 14.8 0.00 0.01 0.01 46 1009.4
20260503201534 61 219 7.8 20.9 0.00 0.01 0.01 44 1009.6
20260503200038 62 131 7.8 16.5 0.00 0.01 0.01 43 1009.7
20260503194542 61 231 7.8 16.5 0.00 0.01 0.01 42 1009.8
20260503193042 61 253 6.1 18.2 0.01 0.01 0.01 44 1010.1
20260503191535 61 262 8.7 18.2 0.01 0.01 0.01 42 1010.3
20260503190036 62 236 6.1 25.2 0.01 0.01 0.01 42 1010.6
20260503184535 62 259 8.7 20.0 0.01 0.01 0.01 43 1010.5
20260503183043 60 249 7.8 25.2 0.00 0.00 0.00 43 1010.8
20260503181532 61 43 9.6 20.9 0.00 0.00 0.00 41 1010.9
20260503180041 61 274 11.3 29.5 0.00 0.00 0.00 41 1011.1
20260503174537 59 233 6.1 18.2 0.00 0.00 0.00 46 1011.4
20260503173035 58 230 5.2 18.2 0.00 0.00 0.00 46 1011.6
20260503171536 58 279 6.1 19.1 0.00 0.00 0.00 47 1012.0
20260503081535 35 219 0.9 2.6 0.00 0.00 0.00 70 1014.5
20260503071536 33 0 0.0 1.7 0.00 0.00 0.00 74 1014.5
20260503054540 35 0 0.0 0.9 0.00 0.00 0.00 72 1015.3
20260503053036 35 0 0.0 0.9 0.00 0.00 0.00 73 1015.3
20260503051534 35 273 0.0 0.9 0.00 0.00 0.00 73 1015.3
20260503050032 35 0 0.0 1.7 0.00 0.00 0.00 72 1015.4
20260503044540 36 221 0.0 1.7 0.00 0.00 0.00 71 1015.5
20260503043033 35 0 0.0 0.9 0.00 0.00 0.00 73 1015.4
20260503041534 35 0 0.0 0.9 0.00 0.00 0.00 74 1015.6
20260503040038 34 0 0.0 0.9 0.00 0.00 0.00 74 1015.6
20260503034534 34 0 0.0 0.0 0.00 0.00 0.00 75 1015.7
20260503033046 35 0 0.0 0.0 0.00 0.00 0.00 73 1015.6
20260503031540 35 0 0.0 0.0 0.00 0.00 0.00 74 1015.7
20260503030039 35 0 0.0 0.0 0.00 0.00 0.00 73 1015.9
20260503024537 36 0 0.0 0.9 0.00 0.00 0.00 73 1015.9
20260503023041 36 0 0.0 0.0 0.00 0.00 0.00 70 1016.0